User: anonymous   Login
Location: Unspecified
(0.0000°N, 0.0000°E)
Time: 01:43:20
(UTC+00:00)
Language:

APRIZESAT 4 - Orbit

View from above orbital plane
View from above orbital plane
View from above satellite
View from above satellite

Ground track
Ground track

The orbit data is extracted from the following two-line orbital elements,

1 35684U 09041D   17348.87312407  .00000060  00000-0  15565-4 0  9997
2 35684  98.1506 293.2520 0046155 234.7732 190.9136 14.79091571451844
Epoch (UTC): 14 December 2017 20:57:17
Eccentricity: 0.0046155
inclination: 98.1506°
perigee height: 600 km
apogee height: 664 km
right ascension of ascending node: 293.2520°
argument of perigee: 234.7732°
revolutions per day: 14.79091571
mean anomaly at epoch: 190.9136°
orbit number at epoch: 45184

The dashed part of the orbit path shows where the satellite is in the earth's shadow,  

DLR